DELTA 1 DEB

Satellite information

Favourite Embed

Satellite Type and Status

DEBRISIN ORBIT

Key statistics

Satellite DELTA 1 DEB at a glance.

Uptime

18449

Days in orbit

Revolutions

≈ 12.1

Per day

Orbit

MEO

Medium Earth Orbit

Inclination

99.5

Latest

Satellite identification and parameters

Extended collection of information and parameters for DELTA 1 DEB.

Object identification

Identified? True

Debris? True

Object name: DELTA 1 DEB

International designator: 1975-052JS

Object number (NORAD): 21914

Object ID (CCSDS): 21914

Country: UNITED STATES OF AMERICA (US)

Current information (Y/N): Y

RCS size: SMALL

Orbital parameters

Period: 118.633 minutes

Inclination: 99.4698 deg

SMA: 7997.656 km

Apoapsis: 2125.343 km

Periapsis: 1113.699 km

RAAN: 47.1327 deg

Eccentricy: 0.06324628

Argument of periapsis: 92.7375 deg

Mean anomaly: 328.0599 deg

Mean motion: 12.13832292 rev/day

Mean motion (dot): 0.00000002 rev/day2

B* drag term: 0.00014770567 1/REarth

Two-line elements (TLE)

Creation date: Dec. 14, 2025, 6:24 p.m.

Reference frame: TEME

Reference center: EARTH

Epoch: Dec. 14, 2025, 3:18 a.m. UTC

TLE line 0: 0 DELTA 1 DEB

TLE line 1: 1 21914U 75052JS 25348.13756449 .00000002 00000-0 14771-3 0 9992

TLE line 2: 2 21914 99.4698 47.1327 0632463 92.7375 328.0599 12.13832292503978

Live tracking on map

Real-time ground track for satellite DELTA 1 DEB.

In-orbit conjunctions

A list of the most updated potential collisions computed for object DELTA 1 DEB.

Target Orbit TCA Probability of collision Miss distance Type
SL-16 DEB LEO 2025-02-03 12:01:56 0.0002187972 119.0 (m) DEBRIS

Associated space launch

Experimental meteorological satellite

DELTA 1 DEB was lifted into orbit during the mission ‘Delta 2910 | Nimbus 6’, on board a Delta 2910 space rocket.

The launch took place on June 12, 1975, 8:12 a.m. from Space Launch Complex 2W.

For more information about the launch, click the button.

Launch to space Delta 2910 | Nimbus 6
Delta 2910 | Nimbus 6

Agency: N/A

Status: Launch Successful

Launch date: June 12, 1975, 8:12 a.m. UTC

Rocket: Delta 2910

Launch pad: Space Launch Complex 2W

Location: Vandenberg SFB, CA, USA

...

Latest news about this satellite

There are no fresh news available about this satellite. Check back as we update our databases every day.


Newsletter sign-up

Weekly statistics, charts and insights to help you stay on top of the space industry.